Simultaneous Nadir Overpasses (SNOs) Predictions

Prediction of SNOs between METOP-C and LANDSAT-8 Satellite Orbit:

Table of predicted SNOs for the next 14.0 days since TLE Epoch: 9/3/2022
Index Date (METOP-C) Time (METOP-C) Lat,Lon (METOP-C) SZA (METOP-C ) Date (LANDSAT-8) Time (LANDSAT-8) Lat,Lon (LANDSAT-8) SZA (LANDSAT-8 ) Distance(km) Time Diff (sec)
1 09/03/2022 13:17:39 -81.19,-158.39 104.05 09/03/2022 13:17:59 -81.19,-158.34 104.03 0.92 20
2 09/03/2022 14:08:18 81.22, 9.97 76.10 09/03/2022 14:07:24 81.22, 9.80 76.06 2.91 54
3 09/06/2022 08:51:59 -81.20, -91.81 102.96 09/06/2022 08:52:16 -81.20, -91.82 102.96 0.25 17
4 09/06/2022 09:42:40 81.20, 75.76 77.08 09/06/2022 09:41:42 81.20, 75.92 77.07 2.71 58
5 09/09/2022 04:26:19 -81.20, -25.24 101.87 09/09/2022 04:26:33 -81.20, -25.38 101.88 2.44 14
6 09/09/2022 05:16:59 81.22, 142.67 78.22 09/09/2022 05:15:58 81.22, 142.70 78.20 0.81 61
7 09/12/2022 00:00:39 -81.19, 40.93 100.81 09/12/2022 00:00:49 -81.19, 40.99 100.80 0.97 10
8 09/12/2022 00:51:18 81.22,-150.83 79.32 09/12/2022 00:50:14 81.22,-150.96 79.28 2.26 64
9 09/14/2022 19:34:59 -81.20, 107.46 99.70 09/14/2022 19:35:05 -81.21, 107.65 99.67 3.30 6



Historial Predications of SNOs between METOP-C and LANDSAT-8
